Regional Weather Roundup
Issued by NWS

Home | Current Version | Previous Version | Text Only | Print | Product List | Glossary On
Versions: 1 2 3 4 5 6 7 8 9 10 11 12 13 14 15 16 17 18 19 20 21 22 23 24 25 26 27 28 29 30 31 32 33 34 35 36 37 38 39 40 41 42 43 44 45 46 47 48 49 50
000
ASUS45 KABQ 070101
RWRNM
NEW MEXICO REGIONAL WEATHER ROUNDUP
NATIONAL WEATHER SERVICE ALBUQUERQUE NM
700 PM MDT MON JUL 06 2015

NOTE: "FAIR" MEANS FEW OR NO CLOUDS BELOW 12,000 FEET AGL WITH NO
       SIGNIFICANT WEATHER OR OBSTRUCTIONS TO VISION.

      THIS PRODUCT IS RELEASED AS TWO VERSIONS.  ONE VERSION NEAR
      THE TOP OF THE HOUR CONTAINING PRELIMINARY DATA FROM ALBUQUERQUE
      AND OTHER STATIONS.  A FINAL VERSION WITH ADDITIONAL DATA IS
      ISSUED ABOUT 10 MINUTES AFTER THE HOUR.

NMZ501-503-504-510>518-070200-
NORTHWEST PLATEAU/NORTHCENTRAL MOUNTAINS

CITY           SKY/WX    TMP DP  RH WIND       PRES   REMARKS
FARMINGTON     MOSUNNY   79  46  31 N12       30.09S
SANTA FE       CLOUDY    70  53  54 S10       30.17F
TAOS           PTSUNNY   68  48  49 SE9       30.24S

$$
NMZ402-403-502-505>509-070200-
WESTCENTRAL MOUNTAINS/SOUTHWEST MOUNTAINS

CITY           SKY/WX    TMP DP  RH WIND       PRES   REMARKS
GALLUP         PTSUNNY   72  55  55 NE10      30.18S
SILVER CITY      N/A     82  50  32 NE15      30.11S

$$
NMZ407-409-411-412-070200-
SOUTHERN DESERTS

CITY           SKY/WX    TMP DP  RH WIND       PRES   REMARKS
LORDSBURG      FAIR      90  52  27 W16       30.00R
DEMING         MOSUNNY   86  57  37 N15       29.98R
ALAMOGORDO     SUNNY     93  48  21 W8        29.94S
T OR C         LGT RAIN  85  52  32 W15       30.01R

$$
NMZ519>523-070200-
CENTRAL VALLEYS/CENTRAL HIGHLANDS

CITY           SKY/WX    TMP DP  RH WIND       PRES   REMARKS
ALBUQUERQUE    PTSUNNY   73  57  57 E23G29    30.07S
DOUBLE EAGLE   PTSUNNY   75  57  53 E8        30.12
MORIARTY ARPT    N/A     66  59  78 W8        30.22R
CLINES CORNERS LGT RAIN  61  59  93 E10       30.24F
BELEN          LGT RAIN  75  59  56 NE12      30.05R
SOCORRO        NOT AVBL

$$
NMZ524>526-539-540-070200-
SOUTHCENTRAL MOUNTAINS

CITY           SKY/WX    TMP DP  RH WIND       PRES   REMARKS
RUIDOSO        NOT AVBL

$$
NMZ527>531-070200-
NORTHEAST HIGHLANDS/NORTHEAST PLAINS

CITY           SKY/WX    TMP DP  RH WIND       PRES   REMARKS
LAS VEGAS      CLOUDY    60  58  92 NE10      30.26R
RATON          CLOUDY    64  58  80 E7        30.24S
CLAYTON        CLOUDY    66  59  78 N21       30.15R

$$
NMZ532>537-070200-
EASTCENTRAL PLAINS

CITY           SKY/WX    TMP DP  RH WIND       PRES   REMARKS
TUCUMCARI      HVY RAIN  67  63  87 N9        30.11R FOG
CANNON AFB     NOT AVBL
CLOVIS AIRPORT CLOUDY    70  64  83 N21         N/A

$$
NMZ028-029-538-070200-
SOUTHEAST PLAINS

CITY           SKY/WX    TMP DP  RH WIND       PRES   REMARKS
ROSWELL        MOSUNNY   77  64  64 N23G41    29.93R
ARTESIA        SUNNY     95  57  28 N14       29.90R
CARLSBAD       PTSUNNY   92  61  35 SE20G31   29.85R
HOBBS          LGT RAIN  84  63  48 S16       29.94R


$$


USA.gov is the U.S. government's official web portal to all federal, state and local government web resources and services.